Flag for Saudi Arabia Weather past 2 weeks in Medina, Saudi Arabia

Now
93 °F

Sunny.


Feels Like: 89 °F
Forecast: 84 / 100 °F
Wind: 5 mph from Northwest

Location: Madinah


UV Index: 10 (Very high)

Visibility: 10 mi


Pressure: 30.04 "Hg

Humidity: 7%

Dew point: 21 °F

Location of MedinaLocation

Historic Weather in Medina

°F

Medina temperature yesterday

Maximum temperature yesterday: 102 °F (at 2:00 PM)
Minimum temperature yesterday: 77 °F (at 6:00 AM)
Average temperature yesterday: 91 °F

Past Weeks' High & Low Weather Summary

 TemperatureHumidityPressure
High102 °F (Apr 17, 2:00 PM)100% (Apr 12, 5:00 AM)30.18 "Hg (Apr 12, 5:00 AM)
Low63 °F (Apr 4, 7:00 AM)3% (Apr 15, 2:00 PM)29.83 "Hg (Apr 17, 4:00 PM)
Average84 °F25%30.00 "Hg
* Reported Apr 3 10:00 AM — Apr 18 10:00 AM, Medina, Weather by CustomWeather, © 2014

Note: Actual official high and low records may vary slightly from our data, if they occured in-between our weather recording intervals... More about our weather records

Advertising

Historic Weather Conditions — Data for Previous 24 hours

 ConditionsComfort  
Time TempWeatherWind HumidityBarometerVisibility
10:00 AM
Apr 18
90 °FScattered clouds.5 mph11%30.04 "HgN/A
9:00 AM88 °FScattered clouds.No wind13%30.04 "HgN/A
8:00 AM84 °FSunny.5 mph22%30.01 "Hg10 mi
7:00 AM82 °FSunny.5 mph26%30.01 "Hg10 mi
6:00 AM81 °FSunny.6 mph28%29.98 "Hg10 mi
5:00 AM84 °FClear.6 mph25%29.98 "Hg10 mi
4:00 AM84 °FClear.5 mph25%29.95 "Hg10 mi
3:00 AM84 °FClear.7 mph27%29.95 "Hg10 mi
2:00 AM86 °FClear.7 mph25%29.95 "Hg10 mi
1:00 AM86 °FClear.6 mph27%29.95 "Hg10 mi
12:00 AM88 °FClear.12 mph25%29.95 "Hg10 mi
11:00 PM
Apr 17
90 °FClear.6 mph24%29.95 "Hg5 mi
10:00 PM91 °FClear.9 mph21%29.95 "Hg5 mi
9:00 PM91 °FClear.16 mph20%29.92 "Hg5 mi
8:00 PM93 °FClear.14 mph20%29.89 "Hg10 mi
7:00 PM97 °FPassing clouds.14 mph13%29.86 "HgN/A
6:00 PM99 °FScattered clouds.14 mph11%29.86 "HgN/A
5:00 PM100 °FScattered clouds.12 mph6%29.83 "HgN/A
4:00 PM100 °FScattered clouds.14 mph4%29.83 "HgN/A
3:00 PM100 °FScattered clouds.16 mph6%29.86 "HgN/A
2:00 PM102 °FScattered clouds.12 mph5%29.89 "HgN/A
1:00 PM100 °FClear.9 mph5%29.92 "Hg6 mi
12:00 PM99 °FScattered clouds.8 mph10%29.92 "Hg6 mi
11:00 AM93 °FClear.No wind17%29.95 "Hg5 mi
Weather by CustomWeather, © 2014

See weather overview